| time (UTC) | temp F | wind direction | speed knots | gust knots | rain 1hr in | rain 24hr in | rain mn in | humidity % | barometer mb |
| 20260505083030 | 54 | 185 | 26.1 | 35.6 | 0.00 | 0.00 | 0.00 | 47 | 1003.3 |
| 20260505081529 | 55 | 185 | 22.6 | 33.9 | 0.00 | 0.00 | 0.00 | 47 | 1003.1 |
| 20260505080030 | 57 | 185 | 22.6 | 33.0 | 0.00 | 0.00 | 0.00 | 45 | 1003.0 |
| 20260505074535 | 58 | 185 | 26.1 | 38.2 | 0.00 | 0.00 | 0.00 | 43 | 1002.8 |
| 20260505073039 | 59 | 185 | 21.7 | 33.9 | 0.00 | 0.00 | 0.00 | 43 | 1002.6 |
| 20260505071530 | 59 | 185 | 25.2 | 38.2 | 0.00 | 0.00 | 0.00 | 43 | 1002.5 |
| 20260505070100 | 59 | 185 | 25.2 | 33.9 | 0.00 | 0.00 | 0.00 | 45 | 1002.3 |
| 20260505060030 | 61 | 185 | 20.9 | 26.9 | 0.00 | 0.00 | 0.00 | 54 | 1002.1 |
| 20260505054536 | 62 | 185 | 18.2 | 25.2 | 0.00 | 0.00 | 0.00 | 55 | 1002.4 |
| 20260505053033 | 63 | 185 | 14.8 | 22.6 | 0.00 | 0.00 | 0.00 | 54 | 1002.1 |
| 20260505051531 | 64 | 185 | 13.9 | 20.0 | 0.00 | 0.00 | 0.00 | 53 | 1001.7 |
| 20260505041544 | 65 | 185 | 10.4 | 19.1 | 0.00 | 0.00 | 0.00 | 50 | 1000.6 |
| 20260505040038 | 66 | 185 | 11.3 | 19.1 | 0.00 | 0.00 | 0.00 | 49 | 1000.6 |
| 20260505034533 | 66 | 185 | 9.6 | 21.7 | 0.00 | 0.00 | 0.00 | 49 | 1000.6 |
| 20260505033032 | 66 | 185 | 12.2 | 18.2 | 0.00 | 0.00 | 0.00 | 49 | 1000.6 |
| 20260505031540 | 66 | 185 | 10.4 | 13.9 | 0.00 | 0.00 | 0.00 | 48 | 1000.8 |
| 20260505030029 | 67 | 185 | 9.6 | 17.4 | 0.00 | 0.00 | 0.00 | 47 | 1000.9 |
| 20260505024530 | 67 | 185 | 10.4 | 15.6 | 0.00 | 0.00 | 0.00 | 46 | 1000.6 |
| 20260505023030 | 68 | 185 | 10.4 | 14.8 | 0.00 | 0.00 | 0.00 | 46 | 1000.6 |
| 20260505021534 | 69 | 185 | 8.7 | 14.8 | 0.00 | 0.00 | 0.00 | 44 | 1000.4 |
| 20260505020032 | 70 | 185 | 8.7 | 14.8 | 0.00 | 0.00 | 0.00 | 42 | 1000.2 |
| 20260505014544 | 71 | 185 | 11.3 | 20.0 | 0.00 | 0.00 | 0.00 | 40 | 1000.1 |
| 20260505013031 | 72 | 185 | 10.4 | 17.4 | 0.00 | 0.00 | 0.00 | 40 | 999.9 |
| 20260505011530 | 73 | 185 | 15.6 | 21.7 | 0.00 | 0.00 | 0.00 | 38 | 999.9 |
| 20260505010028 | 74 | 185 | 13.0 | 20.0 | 0.00 | 0.00 | 0.00 | 35 | 1000.1 |
| 20260505004537 | 76 | 185 | 13.0 | 20.9 | 0.00 | 0.00 | 0.00 | 33 | 999.8 |
| 20260505003029 | 78 | 185 | 13.9 | 19.1 | 0.00 | 0.00 | 0.00 | 32 | 1000.2 |
| 20260505001532 | 80 | 185 | 3.5 | 5.2 | 0.00 | 0.00 | 0.00 | 34 | 1000.4 |
| 20260505000038 | 81 | 185 | 3.5 | 5.2 | 0.00 | 0.00 | 0.00 | 33 | 1000.0 |
| 20260504234534 | 82 | 185 | 5.2 | 7.8 | 0.00 | 0.00 | 0.00 | 27 | 1000.0 |
| 20260504233033 | 83 | 185 | 1.7 | 7.0 | 0.00 | 0.00 | 0.00 | 27 | 1000.1 |
| 20260504231532 | 83 | 185 | 2.6 | 10.4 | 0.00 | 0.00 | 0.00 | 25 | 1000.3 |
| 20260504230030 | 84 | 185 | 7.0 | 16.5 | 0.00 | 0.00 | 0.00 | 22 | 1000.2 |
| 20260504224531 | 85 | 185 | 7.0 | 12.2 | 0.00 | 0.00 | 0.00 | 22 | 1000.2 |
| 20260504223052 | 86 | 185 | 7.8 | 10.4 | 0.00 | 0.00 | 0.00 | 22 | 1000.1 |
| 20260504221528 | 86 | 185 | 7.0 | 11.3 | 0.00 | 0.00 | 0.00 | 20 | 1000.2 |
| 20260504220032 | 87 | 185 | 4.3 | 11.3 | 0.00 | 0.00 | 0.00 | 20 | 1000.3 |
| 20260504214532 | 87 | 185 | 7.8 | 11.3 | 0.00 | 0.00 | 0.00 | 20 | 1000.3 |
| 20260504213045 | 87 | 185 | 7.0 | 13.0 | 0.00 | 0.00 | 0.00 | 21 | 1000.6 |
| 20260504211534 | 85 | 185 | 7.8 | 12.2 | 0.00 | 0.00 | 0.00 | 21 | 1000.8 |
| 20260504210033 | 85 | 185 | 6.1 | 13.0 | 0.00 | 0.00 | 0.00 | 21 | 1001.1 |
| 20260504204541 | 85 | 185 | 7.0 | 13.9 | 0.00 | 0.00 | 0.00 | 20 | 1001.2 |
| 20260504203028 | 86 | 185 | 7.0 | 12.2 | 0.00 | 0.00 | 0.00 | 21 | 1001.3 |
| 20260504201529 | 85 | 185 | 4.3 | 13.9 | 0.00 | 0.00 | 0.00 | 21 | 1001.5 |
| 20260504200034 | 86 | 185 | 1.7 | 11.3 | 0.00 | 0.00 | 0.00 | 20 | 1001.7 |
| 20260504194529 | 86 | 185 | 6.1 | 10.4 | 0.00 | 0.00 | 0.00 | 19 | 1001.8 |
| 20260504193032 | 86 | 185 | 2.6 | 9.6 | 0.00 | 0.00 | 0.00 | 19 | 1001.9 |
| 20260504191530 | 87 | 185 | 7.0 | 11.3 | 0.00 | 0.00 | 0.00 | 20 | 1001.9 |
| 20260504190029 | 87 | 185 | 0.9 | 8.7 | 0.00 | 0.00 | 0.00 | 18 | 1002.4 |
| 20260504184528 | 88 | 185 | 4.3 | 12.2 | 0.00 | 0.00 | 0.00 | 17 | 1002.5 |
| 20260504183030 | 89 | 185 | 1.7 | 5.2 | 0.00 | 0.00 | 0.00 | 17 | 1002.6 |
| 20260504181539 | 89 | 185 | 4.3 | 10.4 | 0.00 | 0.00 | 0.00 | 18 | 1003.0 |
| 20260504180032 | 90 | 185 | 3.5 | 12.2 | 0.00 | 0.00 | 0.00 | 18 | 1003.1 |
| 20260504174528 | 89 | 185 | 0.9 | 7.8 | 0.00 | 0.00 | 0.00 | 18 | 1003.2 |
| 20260504173032 | 88 | 185 | 5.2 | 8.7 | 0.00 | 0.00 | 0.00 | 18 | 1003.4 |
| 20260504171528 | 87 | 0 | 0.9 | 8.7 | 0.00 | 0.00 | 0.00 | 18 | 1003.4 |